Falls City, NE

10:35 PM CST on February 07, 2016 (GMT -0600)
Brenner

Weather History for KFNB - October, 2011

Change the Weather History Date:

Thursday, October 27, 2011

  Actual Average Record
Temperature  
Mean Temperature 44 °F -  
Max Temperature 57 °F 63 °F 85 °F (1999)
Min Temperature 32 °F 40 °F 19 °F (1997)
Degree Days  
Heating Degree Days 20    
Moisture  
Dew Point 30 °F    
Average Humidity 62    
Maximum Humidity 96    
Minimum Humidity 27    
Precipitation  
Precipitation 0.00 in - - ()
Sea Level Pressure  
Sea Level Pressure 30.15 in    
Wind  
Wind Speed 5 mph (NW)    
Max Wind Speed 10 mph    
Max Gust Speed 16 mph    
Visibility 10 miles    
Events      
Averages and records for this station are not official NWS values.
T = Trace of Precipitation, MM = Missing Value Source: NWS Daily Summary

Daily Weather History Graph

Daily Weather History Graph

Search for Another Location

Airport or City:

Trip Planner

Search our weather history database for the weather conditions in past years. The results will help you decide how hot, cold, wet, or windy it might be!

Date:

Astronomy

Oct. 27, 2011 Rise Set
Actual Time 7:45 AM CDT 6:26 PM CDT
Civil Twilight 7:17 AM CDT 6:54 PM CDT
Nautical Twilight 6:46 AM CDT 7:25 PM CDT
Astronomical Twilight 6:14 AM CDT 7:57 PM CDT
Moon 8:50 AM CDT (10/27) 6:56 PM CDT (10/27)
Length of Visible Light 11h 36m
Length of Day
10h 40m
New Moon, 1% of the Moon is Illuminated
Oct 27
New Moon
Nov 2
First Quarter
Nov 10
Full
Nov 18
Last Quarter
Nov 25
New

Hourly Weather History & Observations

Time (CDT) Temp. Windchill Dew Point Humidity Pressure Visibility Wind Dir Wind Speed Gust Speed Precip Events Conditions
12:53 AM 46.0 °F 42.5 °F 36.0 °F 68% 30.11 in 10.0 mi NW 6.9 mph - N/A   Overcast
1:53 AM 45.0 °F 41.8 °F 36.0 °F 71% 30.12 in 10.0 mi WNW 5.8 mph - N/A   Scattered Clouds
2:53 AM 44.6 °F 42.2 °F 35.6 °F 71% 30.11 in 10.0 mi NW 4.6 mph - N/A   Mostly Cloudy
3:53 AM 41.0 °F 37.1 °F 34.0 °F 76% 30.11 in 10.0 mi NW 5.8 mph - N/A   Clear
4:53 AM 39.9 °F 37.8 °F 35.1 °F 83% 30.12 in 10.0 mi NW 3.5 mph - N/A   Overcast
5:53 AM 39.0 °F 36.8 °F 34.0 °F 82% 30.12 in 10.0 mi NW 3.5 mph - N/A   Mostly Cloudy
6:53 AM 36.0 °F 31.1 °F 33.1 °F 89% 30.14 in 10.0 mi NW 5.8 mph - N/A   Clear
7:53 AM 32.0 °F 26.4 °F 30.9 °F 96% 30.15 in 10.0 mi WNW 5.8 mph - N/A   Clear
8:53 AM 36.0 °F 33.3 °F 34.0 °F 93% 30.18 in 10.0 mi West 3.5 mph - N/A   Mostly Cloudy
9:53 AM 39.9 °F 35.8 °F 35.1 °F 83% 30.20 in 10.0 mi West 5.8 mph - N/A   Clear
10:53 AM 46.0 °F 43.9 °F 36.0 °F 68% 30.20 in 10.0 mi Variable 4.6 mph - N/A   Clear
11:53 AM 51.1 °F - 34.0 °F 52% 30.18 in 10.0 mi Variable 3.5 mph - N/A   Clear
12:53 PM 54.0 °F - 32.0 °F 43% 30.16 in 10.0 mi NNW 9.2 mph - N/A   Clear
1:53 PM 55.0 °F - 28.9 °F 37% 30.14 in 10.0 mi North 6.9 mph 16.1 mph N/A   Clear
2:53 PM 55.9 °F - 25.0 °F 30% 30.13 in 10.0 mi NW 10.4 mph - N/A   Clear
3:53 PM 57.0 °F - 25.0 °F 29% 30.12 in 10.0 mi NNW 9.2 mph - N/A   Clear
4:53 PM 55.9 °F - 21.9 °F 27% 30.12 in 10.0 mi North 6.9 mph - N/A   Clear
5:53 PM 53.1 °F - 24.1 °F 32% 30.12 in 10.0 mi NNE 4.6 mph - N/A   Clear
6:53 PM 50.0 °F - 23.0 °F 35% 30.12 in 10.0 mi Calm Calm - N/A   Clear
7:53 PM 44.1 °F - 26.1 °F 49% 30.16 in 10.0 mi Calm Calm - N/A   Clear
8:53 PM 37.9 °F - 26.1 °F 62% 30.17 in 10.0 mi Calm Calm - N/A   Clear
9:53 PM 37.9 °F - 25.0 °F 60% 30.19 in 10.0 mi Calm Calm - N/A   Clear
10:53 PM 36.0 °F - 26.1 °F 67% 30.19 in 10.0 mi Calm Calm - N/A   Clear
11:53 PM 34.0 °F - 26.1 °F 73% 30.19 in 10.0 mi Calm Calm - N/A   Clear